STARLINK-1568, 46080

Orbit data source: Space-Track

STARLINK-1568, 46080 is a payload satellite owned by SpaceX/Seattle (US) in LEO that was launched on Fri, 07 Aug 2020 UTC via an FALCON 9 launch vehicle from the Air Force Eastern Test Range (AFETR). Payload-class satellites include a variety of spacecraft equipped with specific instruments for various scientific and technological missions. These include communications satellites like Starlink; space stations such as the ISS; scientific satellites like the Hubble; Earth observation satellites from companies like Planet Labs, Umbra, and HawkEye 360; GPS; miniature CubeSats for education and research; and military/defense satellites.

Loading next visibility...
Identifier
46080, 2020-055BF
Orbit
LEO
Country
Flag of USUS
Related business
Manufacturer
SpaceX/Seattle
Mission
Partially operational Commercial Communications
Bus & Motor
STARLINK, Unknown motor
Mass
260 kg wet, ~248 kg dry
Launch date (UTC)
2020-08-07 (6 years ago)
Launch vehicle
FALCON 9
Launch site
Air Force Eastern Test Range (AFETR)
Object type
Payload
Rocket body
Debris
Shape & HBR
Box + 1 Pan, 10.1 m
Radar Cross Section
13.562 m², Large (>1 m²)

Expand to show TLE details & history
Last TLE update: 11 hours ago

TLE from 11 hours ago
0 STARLINK-1568
1 46080U 20055BF  26263.45033645  .00050779  00000-0  53456-3 0  9993
2 46080  53.0533 171.7468 0004299  75.4241 284.7250 15.63794388340492
Epoch: 2026-09-20T10:48Z
TLE epoch observation values (Epoch: 2026-09-20T10:48:29.069Z)
Latitude
0.00003°
Longitude
10.28136°
Altitude
376.872 km
Speed
7.685 km/s
True Right ascension
11h 26m 59s
True Declination
0° 00' 00"
Sunlit
Object was in daylight at epoch
Visualization orbit readout
Latitude
Unknown
Longitude
Unknown
Altitude
Unknown
Speed
Unknown
Apparent Right ascension
Unknown
Apparent Declination
Unknown
Sunlit
N/A
Visualization observer readout
Local Sidereal Time
15:00:58
Azimuth
Unknown
Elevation
Unknown
Doppler factor
Unknown
Orbital elements
Apogee altitude
379.89 km
Perigee altitude
374.082 km
Semi-major axis
6,755.123 km
Eccentricity
0.00043
Inclination
53.0533°
RAAN
171.7468°
Arg. of periapsis
75.4241°
True anomaly
284.67735°
Mean anomaly
284.725°
Eccentric anomaly
284.70117°
Mean motion
3.90925 °/min
Orbital period
92.09 mins
BSTAR
0.00053456
Loading maneuver chart data...
Computing Atmospheric mass density...
Loading historical data...
Loading historical data...
Loading historical data...
Loading historical data...
Loading historical data...
Loading historical data...
Loading historical data...

Documentation

Showing up to 5 results
|